NOAA 16 DEB

Satellite information

Favourite Embed

Satellite Type and Status

DEBRISIN ORBIT

Key statistics

Satellite NOAA 16 DEB at a glance.

Uptime

9214

Days in orbit

Revolutions

≈ 14.6

Per day

Orbit

SSO

Sun Synchronous Orbit

Inclination

98.9

Latest

Satellite identification and parameters

Extended collection of information and parameters for NOAA 16 DEB.

Object identification

Identified? True

Debris? True

Object name: NOAA 16 DEB

International designator: 2000-055KY

Object number (NORAD): 41419

Object ID (CCSDS): 41419

Country: UNITED STATES OF AMERICA (US)

Current information (Y/N): Y

RCS size: SMALL

Orbital parameters

Period: 98.561 minutes

Inclination: 98.8516 deg

SMA: 7068.023 km

Apoapsis: 699.539 km

Periapsis: 680.236 km

RAAN: 103.191 deg

Eccentricy: 0.00136552

Argument of periapsis: 276.5323 deg

Mean anomaly: 83.4321 deg

Mean motion: 14.61019027 rev/day

Mean motion (dot): 0.0004059 rev/day2

B* drag term: 0.0082232585 1/REarth

Two-line elements (TLE)

Creation date: Dec. 9, 2025, 5:08 a.m.

Reference frame: TEME

Reference center: EARTH

Epoch: Dec. 8, 2025, 6:55 p.m. UTC

TLE line 0: 0 NOAA 16 DEB

TLE line 1: 1 41419U 00055KY 25342.78820862 .00040590 00000-0 82233-2 0 9994

TLE line 2: 2 41419 98.8516 103.1910 0013655 276.5323 83.4321 14.61019027506914

Live tracking on map

Real-time ground track for satellite NOAA 16 DEB.

In-orbit conjunctions

A list of the most updated potential collisions computed for object NOAA 16 DEB.

Target Orbit TCA Probability of collision Miss distance Type
THOR BURNER 2 R/B SSO 2025-01-02 01:53:17 0.0001065958 413.0 (m) ROCKET BODY
MICRO LABSAT SSO 2024-10-14 07:08:47 0.0002803871 215.0 (m) PAYLOAD

Associated space launch

The NOAA K, L and M POES satellites begin the fifth generation of improved environmental monitoring in support of NOAA missions. The instrument payload has significant improvements and additions/deletions. The instrument changes have effected the spacecraft subsystems and data formats.

NOAA 16 DEB was lifted into orbit during the mission ‘Titan II SLV | NOAA 16’, on board a Titan II SLV space rocket.

The launch took place on Sept. 21, 2000, 10:22 a.m. from Space Launch Complex 4W.

For more information about the launch, click the button.

Launch to space Titan II SLV | NOAA 16
Titan II SLV | NOAA 16

Agency: N/A

Status: Launch Successful

Launch date: Sept. 21, 2000, 10:22 a.m. UTC

Rocket: Titan II SLV

Launch pad: Space Launch Complex 4W

Location: Vandenberg SFB, CA, USA

...

Latest news about this satellite

There are no fresh news available about this satellite. Check back as we update our databases every day.


Newsletter sign-up

Weekly statistics, charts and insights to help you stay on top of the space industry.